StationID,Date,MaxTemp,MinTemp,Precipitation,Snowfall,SnowDepth
"CA001125850","1954-04-01",60.08,30.92,0.00,0.00,
"CA001125850","1954-04-02",57.02,30.92,5.00,0.00,
"CA001125850","1954-04-03",66.02,35.06,0.00,0.00,
"CA001125850","1954-04-04",57.02,44.96,5.00,0.00,
"CA001125850","1954-04-05",59.00,37.04,0.00,0.00,
"CA001125850","1954-04-06",57.02,39.92,0.00,0.00,
"CA001125850","1954-04-07",55.04,32.00,0.00,0.00,
"CA001125850","1954-04-08",53.96,37.94,8.00,0.00,
"CA001125850","1954-04-09",53.96,32.00,0.00,0.00,
"CA001125850","1954-04-10",57.92,30.92,0.00,0.00,
"CA001125850","1954-04-11",66.02,35.06,0.00,0.00,
"CA001125850","1954-04-12",66.92,46.94,0.00,0.00,
"CA001125850","1954-04-13",69.98,50.00,0.00,0.00,
"CA001125850","1954-04-14",53.96,37.94,0.00,0.00,
"CA001125850","1954-04-15",62.06,26.96,0.00,0.00,
"CA001125850","1954-04-16",78.08,44.06,0.00,0.00,
"CA001125850","1954-04-17",69.08,44.06,0.00,0.00,
"CA001125850","1954-04-18",59.00,42.08,0.00,0.00,
"CA001125850","1954-04-19",55.04,35.96,0.00,0.00,
"CA001125850","1954-04-20",60.98,28.94,0.00,0.00,
"CA001125850","1954-04-21",60.08,33.98,0.00,0.00,
"CA001125850","1954-04-22",62.06,33.98,0.00,0.00,
"CA001125850","1954-04-23",62.06,32.00,0.00,0.00,
"CA001125850","1954-04-24",64.04,42.08,0.00,0.00,
"CA001125850","1954-04-25",55.94,39.02,0.00,0.00,
"CA001125850","1954-04-26",55.94,32.00,0.00,0.00,
"CA001125850","1954-04-27",55.04,33.98,0.00,0.00,
"CA001125850","1954-04-28",50.00,37.04,0.00,0.00,
"CA001125850","1954-04-29",44.96,26.96,0.00,0.00,
"CA001125850","1954-04-30",51.98,28.94,0.00,0.00,
"CA001125850","1954-05-01",60.98,24.98,0.00,0.00,
"CA001125850","1954-05-02",64.04,32.00,0.00,0.00,
"CA001125850","1954-05-03",71.96,46.04,0.00,0.00,
"CA001125850","1954-05-04",73.94,48.02,5.00,0.00,
"CA001125850","1954-05-05",71.96,51.08,0.00,0.00,
"CA001125850","1954-05-06",73.94,42.98,0.00,0.00,
"CA001125850","1954-05-07",78.98,46.04,0.00,0.00,
"CA001125850","1954-05-08",82.04,51.08,0.00,0.00,
"CA001125850","1954-05-09",75.02,50.00,0.00,0.00,
"CA001125850","1954-05-10",78.98,60.08,0.00,0.00,
"CA001125850","1954-05-11",55.04,50.00,351.00,0.00,
"CA001125850","1954-05-12",57.92,39.92,0.00,0.00,
"CA001125850","1954-05-13",68.00,37.94,0.00,0.00,
"CA001125850","1954-05-14",73.94,37.94,0.00,0.00,
"CA001125850","1954-05-15",75.92,48.92,0.00,0.00,
"CA001125850","1954-05-16",80.06,48.02,0.00,0.00,
"CA001125850","1954-05-17",82.04,59.00,0.00,0.00,
"CA001125850","1954-05-18",89.96,51.08,0.00,0.00,
"CA001125850","1954-05-19",82.04,51.08,0.00,0.00,
"CA001125850","1954-05-20",77.00,50.00,0.00,0.00,
"CA001125850","1954-05-21",68.00,55.04,0.00,0.00,
"CA001125850","1954-05-22",77.00,46.94,0.00,0.00,
"CA001125850","1954-05-23",78.08,44.06,0.00,0.00,
"CA001125850","1954-05-24",68.00,48.02,10.00,0.00,
"CA001125850","1954-05-25",59.00,48.02,124.00,0.00,
"CA001125850","1954-05-26",62.96,39.02,8.00,0.00,
"CA001125850","1954-05-27",59.00,48.02,5.00,0.00,
"CA001125850","1954-05-28",71.06,39.02,0.00,0.00,
"CA001125850","1954-05-29",77.00,46.04,0.00,0.00,
"CA001125850","1954-05-30",75.92,60.08,10.00,0.00,
"CA001125850","1954-05-31",60.08,50.00,46.00,0.00,
"CA001125850","1954-06-01",68.00,37.94,0.00,0.00,
"CA001125850","1954-06-02",73.04,41.00,0.00,0.00,
"CA001125850","1954-06-03",69.08,50.00,0.00,0.00,
"CA001125850","1954-06-04",53.06,48.92,79.00,0.00,
"CA001125850","1954-06-05",59.00,35.96,0.00,0.00,
"CA001125850","1954-06-06",57.02,39.02,0.00,0.00,
"CA001125850","1954-06-07",71.96,51.08,0.00,0.00,
"CA001125850","1954-06-08",73.04,48.02,0.00,0.00,
"CA001125850","1954-06-09",82.04,44.96,0.00,0.00,
"CA001125850","1954-06-10",75.92,57.02,0.00,0.00,
"CA001125850","1954-06-11",73.94,53.96,0.00,0.00,
"CA001125850","1954-06-12",73.94,55.04,61.00,0.00,
"CA001125850","1954-06-13",69.98,51.98,0.00,0.00,
"CA001125850","1954-06-14",73.04,42.98,0.00,0.00,
"CA001125850","1954-06-15",62.96,46.94,58.00,0.00,
"CA001125850","1954-06-16",64.94,42.98,5.00,0.00,
"CA001125850","1954-06-17",64.94,48.02,0.00,0.00,
"CA001125850","1954-06-18",71.06,42.08,0.00,0.00,
"CA001125850","1954-06-19",69.08,46.04,0.00,0.00,
"CA001125850","1954-06-20",80.06,57.92,8.00,0.00,
"CA001125850","1954-06-21",82.04,48.02,0.00,0.00,
"CA001125850","1954-06-22",84.02,53.96,0.00,0.00,
"CA001125850","1954-06-23",78.98,53.96,0.00,0.00,
"CA001125850","1954-06-24",80.96,53.96,0.00,0.00,
"CA001125850","1954-06-25",80.06,57.92,0.00,0.00,
"CA001125850","1954-06-26",73.94,57.92,66.00,0.00,
"CA001125850","1954-06-27",64.04,55.94,15.00,0.00,
"CA001125850","1954-06-28",75.02,51.08,0.00,0.00,
"CA001125850","1954-06-29",80.96,48.92,0.00,0.00,
"CA001125850","1954-06-30",82.94,57.92,104.00,0.00,
"CA001125850","1954-07-01",60.08,57.02,127.00,0.00,
"CA001125850","1954-07-02",73.04,51.98,0.00,0.00,
"CA001125850","1954-07-03",82.04,51.08,0.00,0.00,
"CA001125850","1954-07-04",89.96,51.98,0.00,0.00,
"CA001125850","1954-07-05",87.08,59.00,0.00,0.00,
"CA001125850","1954-07-06",87.98,59.00,0.00,0.00,
"CA001125850","1954-07-07",84.92,60.08,0.00,0.00,
"CA001125850","1954-07-08",80.96,62.06,0.00,0.00,
"CA001125850","1954-07-09",77.00,59.00,0.00,0.00,
"CA001125850","1954-07-10",71.96,60.08,8.00,0.00,
"CA001125850","1954-07-11",80.96,48.02,0.00,0.00,
"CA001125850","1954-07-12",80.06,57.92,0.00,0.00,
"CA001125850","1954-07-13",87.08,55.04,0.00,0.00,
"CA001125850","1954-07-14",91.04,57.02,0.00,0.00,
"CA001125850","1954-07-15",89.96,55.04,0.00,0.00,
"CA001125850","1954-07-16",95.00,59.00,0.00,0.00,
"CA001125850","1954-07-17",89.96,66.92,0.00,0.00,
"CA001125850","1954-07-18",91.04,60.98,0.00,0.00,
"CA001125850","1954-07-19",89.96,64.04,0.00,0.00,
"CA001125850","1954-07-20",69.08,55.04,86.00,0.00,
"CA001125850","1954-07-21",75.02,51.08,0.00,0.00,
"CA001125850","1954-07-22",80.06,50.00,0.00,0.00,
"CA001125850","1954-07-23",78.98,60.98,0.00,0.00,
"CA001125850","1954-07-24",84.92,53.96,0.00,0.00,
"CA001125850","1954-07-25",89.06,53.06,0.00,0.00,
"CA001125850","1954-07-26",89.06,64.04,0.00,0.00,
"CA001125850","1954-07-27",84.02,57.92,0.00,0.00,
"CA001125850","1954-07-28",77.00,53.96,0.00,0.00,
"CA001125850","1954-07-29",82.04,51.98,0.00,0.00,
"CA001125850","1954-07-30",87.98,53.06,0.00,0.00,
"CA001125850","1954-07-31",91.04,55.94,0.00,0.00,
"CA001125850","1954-08-01",93.02,57.02,0.00,0.00,
"CA001125850","1954-08-02",91.04,64.04,0.00,0.00,
"CA001125850","1954-08-03",69.98,59.00,10.00,0.00,
"CA001125850","1954-08-04",73.04,53.06,0.00,0.00,
"CA001125850","1954-08-05",80.96,53.96,0.00,0.00,
"CA001125850","1954-08-06",87.08,55.04,0.00,0.00,
"CA001125850","1954-08-07",87.98,62.06,0.00,0.00,
"CA001125850","1954-08-08",89.06,59.00,0.00,0.00,
"CA001125850","1954-08-09",87.98,59.00,0.00,0.00,
"CA001125850","1954-08-10",82.94,57.92,0.00,0.00,
"CA001125850","1954-08-11",80.96,60.98,0.00,0.00,
"CA001125850","1954-08-12",84.92,60.08,0.00,0.00,
"CA001125850","1954-08-13",89.96,55.04,5.00,0.00,
"CA001125850","1954-08-14",75.02,60.08,48.00,0.00,
"CA001125850","1954-08-15",78.98,51.98,0.00,0.00,
"CA001125850","1954-08-16",80.06,57.92,38.00,0.00,
"CA001125850","1954-08-17",69.98,57.02,64.00,0.00,
"CA001125850","1954-08-18",71.06,59.00,15.00,0.00,
"CA001125850","1954-08-19",71.06,57.92,53.00,0.00,
"CA001125850","1954-08-20",73.94,53.06,0.00,0.00,
"CA001125850","1954-08-21",80.06,55.04,0.00,0.00,
"CA001125850","1954-08-22",69.08,60.08,41.00,0.00,
"CA001125850","1954-08-23",69.98,55.04,43.00,0.00,
"CA001125850","1954-08-24",64.04,51.98,112.00,0.00,
"CA001125850","1954-08-25",66.92,48.02,61.00,0.00,
"CA001125850","1954-08-26",69.98,53.06,0.00,0.00,
"CA001125850","1954-08-27",75.92,48.02,0.00,0.00,
"CA001125850","1954-08-28",75.92,57.02,0.00,0.00,
"CA001125850","1954-08-29",78.98,57.92,0.00,0.00,
"CA001125850","1954-08-30",87.98,57.92,38.00,0.00,
"CA001125850","1954-08-31",78.08,53.96,0.00,0.00,
"CA001125850","1954-09-01",82.04,50.00,0.00,0.00,
"CA001125850","1954-09-02",82.94,50.00,53.00,0.00,
"CA001125850","1954-09-03",69.98,53.96,8.00,0.00,
"CA001125850","1954-09-04",69.98,46.94,0.00,0.00,
"CA001125850","1954-09-05",71.96,46.04,0.00,0.00,
"CA001125850","1954-09-06",75.92,46.04,0.00,0.00,
"CA001125850","1954-09-07",71.96,51.98,13.00,0.00,
"CA001125850","1954-09-08",73.04,50.00,0.00,0.00,
"CA001125850","1954-09-09",78.08,48.92,0.00,0.00,
"CA001125850","1954-09-10",73.94,55.94,5.00,0.00,
"CA001125850","1954-09-11",73.04,55.04,0.00,0.00,
"CA001125850","1954-09-12",68.00,51.08,13.00,0.00,
"CA001125850","1954-09-13",73.04,46.04,0.00,0.00,
"CA001125850","1954-09-14",66.92,53.06,0.00,0.00,
"CA001125850","1954-09-15",62.96,53.96,124.00,0.00,
"CA001125850","1954-09-16",60.98,53.96,15.00,0.00,
"CA001125850","1954-09-17",62.96,55.04,10.00,0.00,
"CA001125850","1954-09-18",68.00,53.06,8.00,0.00,
"CA001125850","1954-09-19",71.06,53.06,0.00,0.00,
"CA001125850","1954-09-20",73.04,46.04,0.00,0.00,
"CA001125850","1954-09-21",73.94,44.06,0.00,0.00,
"CA001125850","1954-09-22",73.94,48.02,0.00,0.00,
"CA001125850","1954-09-23",73.04,48.92,0.00,0.00,
"CA001125850","1954-09-24",77.00,48.02,0.00,0.00,
"CA001125850","1954-09-25",78.98,44.96,0.00,0.00,
"CA001125850","1954-09-26",77.00,46.94,0.00,0.00,
"CA001125850","1954-09-27",66.92,44.06,0.00,0.00,
"CA001125850","1954-09-28",64.04,50.00,5.00,0.00,
"CA001125850","1954-09-29",57.92,41.00,5.00,0.00,
"CA001125850","1954-09-30",57.92,37.04,0.00,0.00,
"CA001125850","1954-10-01",59.00,33.08,0.00,0.00,
"CA001125850","1954-10-02",55.04,33.98,0.00,0.00,
"CA001125850","1954-10-03",50.00,41.00,0.00,0.00,
"CA001125850","1954-10-04",50.00,41.00,0.00,0.00,
"CA001125850","1954-10-05",51.98,44.06,0.00,0.00,
"CA001125850","1954-10-06",53.96,37.04,0.00,0.00,
"CA001125850","1954-10-07",69.98,37.94,0.00,0.00,
"CA001125850","1954-10-08",71.96,51.08,0.00,0.00,
"CA001125850","1954-10-09",68.00,39.02,0.00,0.00,
"CA001125850","1954-10-10",64.94,39.02,0.00,0.00,
"CA001125850","1954-10-11",64.04,42.98,0.00,0.00,
"CA001125850","1954-10-12",57.92,33.98,0.00,0.00,
"CA001125850","1954-10-13",57.02,30.02,0.00,0.00,
"CA001125850","1954-10-14",62.06,35.06,0.00,0.00,
"CA001125850","1954-10-15",66.92,35.06,0.00,0.00,
"CA001125850","1954-10-16",64.04,33.98,0.00,0.00,
"CA001125850","1954-10-17",69.08,41.00,0.00,0.00,
"CA001125850","1954-10-18",66.92,44.96,0.00,0.00,
"CA001125850","1954-10-19",60.98,41.00,25.00,0.00,
"CA001125850","1954-10-20",51.98,37.94,18.00,0.00,
"CA001125850","1954-10-21",55.04,35.96,0.00,0.00,
"CA001125850","1954-10-22",48.92,30.92,0.00,0.00,
"CA001125850","1954-10-23",53.06,33.08,0.00,0.00,
"CA001125850","1954-10-24",50.00,30.02,0.00,0.00,
"CA001125850","1954-10-25",51.98,33.08,0.00,0.00,
"CA001125850","1954-10-26",51.98,24.98,0.00,0.00,
"CA001125850","1954-10-27",53.06,28.04,0.00,0.00,
"CA001125850","1954-10-28",53.06,37.04,0.00,0.00,
"CA001125850","1954-10-29",53.06,30.02,0.00,0.00,
"CA001125850","1954-10-30",51.98,35.06,0.00,0.00,
"CA001125850","1954-10-31",57.02,37.94,0.00,0.00,
"CA001125850","1954-11-01",51.08,37.94,0.00,0.00,
"CA001125850","1954-11-02",51.98,37.94,0.00,0.00,
"CA001125850","1954-11-03",48.92,35.96,0.00,0.00,
"CA001125850","1954-11-04",48.92,37.94,0.00,0.00,
"CA001125850","1954-11-05",51.98,46.04,0.00,0.00,
"CA001125850","1954-11-06",57.92,44.06,0.00,0.00,
"CA001125850","1954-11-07",48.92,28.94,0.00,0.00,
"CA001125850","1954-11-08",48.02,35.06,0.00,0.00,
"CA001125850","1954-11-09",48.02,37.94,28.00,0.00,
"CA001125850","1954-11-10",55.04,44.06,0.00,0.00,
"CA001125850","1954-11-11",48.02,37.04,20.00,0.00,
"CA001125850","1954-11-12",53.06,39.92,0.00,0.00,
"CA001125850","1954-11-13",50.00,33.08,48.00,0.00,
"CA001125850","1954-11-14",48.02,42.08,38.00,0.00,
"CA001125850","1954-11-15",48.02,44.96,109.00,0.00,
"CA001125850","1954-11-16",53.06,46.04,5.00,0.00,
"CA001125850","1954-11-17",53.06,37.04,0.00,0.00,
"CA001125850","1954-11-18",57.02,42.98,0.00,0.00,
"CA001125850","1954-11-19",59.00,46.94,66.00,0.00,
"CA001125850","1954-11-20",50.00,46.94,0.00,0.00,
"CA001125850","1954-11-21",55.04,44.06,0.00,0.00,
"CA001125850","1954-11-22",53.96,41.00,0.00,0.00,
"CA001125850","1954-11-23",48.92,30.92,0.00,0.00,
"CA001125850","1954-11-24",46.94,33.08,0.00,0.00,
"CA001125850","1954-11-25",48.92,35.06,25.00,0.00,
"CA001125850","1954-11-26",46.94,33.08,0.00,0.00,
"CA001125850","1954-11-27",50.00,35.96,0.00,0.00,
"CA001125850","1954-11-28",42.08,26.96,0.00,0.00,
"CA001125850","1954-11-29",39.02,26.96,0.00,0.00,
"CA001125850","1954-11-30",37.04,32.00,0.00,0.00,
"CA001125850","1954-12-01",33.98,21.02,0.00,0.00,
"CA001125850","1954-12-02",26.06,19.94,0.00,0.00,
"CA001125850","1954-12-03",32.00,17.96,0.00,0.00,
"CA001125850","1954-12-04",35.96,28.04,8.00,0.00,
"CA001125850","1954-12-05",39.92,33.98,61.00,0.00,
"CA001125850","1954-12-06",42.98,35.06,13.00,0.00,
"CA001125850","1954-12-07",39.92,32.00,0.00,0.00,
"CA001125850","1954-12-08",42.98,33.98,0.00,0.00,
"CA001125850","1954-12-09",33.98,30.02,43.00,0.00,
"CA001125850","1954-12-10",37.94,30.92,0.00,0.00,
"CA001125850","1954-12-11",37.94,33.08,0.00,0.00,
"CA001125850","1954-12-12",33.98,33.98,0.00,0.00,
"CA001125850","1954-12-13",37.94,33.08,0.00,0.00,
"CA001125850","1954-12-14",39.02,33.98,13.00,0.00,
"CA001125850","1954-12-15",46.04,33.98,0.00,0.00,
"CA001125850","1954-12-16",37.04,21.92,0.00,0.00,
"CA001125850","1954-12-17",35.06,19.04,0.00,0.00,
"CA001125850","1954-12-18",35.06,17.06,0.00,0.00,
"CA001125850","1954-12-19",28.04,19.04,0.00,0.00,
"CA001125850","1954-12-20",33.98,24.08,0.00,0.00,
"CA001125850","1954-12-21",39.02,28.94,0.00,0.00,
"CA001125850","1954-12-22",37.04,24.98,0.00,0.00,
"CA001125850","1954-12-23",35.06,28.94,13.00,0.00,
"CA001125850","1954-12-24",41.00,33.98,0.00,0.00,
"CA001125850","1954-12-25",35.96,26.06,0.00,0.00,
"CA001125850","1954-12-26",33.08,19.04,0.00,0.00,
"CA001125850","1954-12-27",28.94,15.98,0.00,0.00,
"CA001125850","1954-12-28",30.92,26.96,0.00,0.00,
"CA001125850","1954-12-29",33.98,28.94,0.00,0.00,
"CA001125850","1954-12-30",37.04,28.04,48.00,28.00,
"CA001125850","1954-12-31",39.92,28.94,5.00,0.00,
"CA001125850","1955-01-01",39.02,32.00,0.00,0.00,
"CA001125850","1955-01-02",33.08,24.08,0.00,0.00,
"CA001125850","1955-01-03",30.02,17.96,0.00,0.00,
"CA001125850","1955-01-04",33.98,17.96,15.00,15.00,
"CA001125850","1955-01-05",32.00,26.06,0.00,0.00,
"CA001125850","1955-01-06",28.94,23.00,0.00,0.00,
"CA001125850","1955-01-07",28.94,24.08,0.00,0.00,
"CA001125850","1955-01-08",32.00,26.06,46.00,46.00,
"CA001125850","1955-01-09",35.06,26.96,0.00,0.00,
"CA001125850","1955-01-10",30.92,24.08,0.00,0.00,
"CA001125850","1955-01-11",28.04,10.94,0.00,0.00,
"CA001125850","1955-01-12",35.06,17.96,10.00,10.00,
"CA001125850","1955-01-13",35.06,26.06,0.00,0.00,
"CA001125850","1955-01-14",26.06,10.94,0.00,0.00,
"CA001125850","1955-01-15",30.02,23.00,58.00,58.00,
"CA001125850","1955-01-16",32.00,26.96,0.00,0.00,
"CA001125850","1955-01-17",32.00,28.04,13.00,13.00,
"CA001125850","1955-01-18",33.08,26.06,33.00,33.00,
"CA001125850","1955-01-19",33.98,26.06,0.00,0.00,
"CA001125850","1955-01-20",33.98,26.06,0.00,0.00,
"CA001125850","1955-01-21",26.06,15.98,10.00,10.00,
"CA001125850","1955-01-22",30.02,12.02,0.00,0.00,
"CA001125850","1955-01-23",33.98,24.08,0.00,0.00,
"CA001125850","1955-01-24",33.08,28.94,30.00,30.00,
"CA001125850","1955-01-25",35.06,26.96,0.00,0.00,
"CA001125850","1955-01-26",32.00,28.04,0.00,0.00,
"CA001125850","1955-01-27",32.00,28.94,0.00,0.00,
"CA001125850","1955-01-28",32.00,26.06,0.00,0.00,
"CA001125850","1955-01-29",33.98,28.94,0.00,0.00,
"CA001125850","1955-01-30",33.98,26.06,0.00,0.00,
"CA001125850","1955-01-31",35.06,28.94,13.00,13.00,
"CA001125850","1955-02-01",37.04,30.92,0.00,0.00,
"CA001125850","1955-02-02",33.08,19.04,0.00,0.00,
"CA001125850","1955-02-03",26.96,17.96,15.00,15.00,
"CA001125850","1955-02-04",33.98,21.02,0.00,0.00,
"CA001125850","1955-02-05",33.08,21.92,20.00,20.00,
"CA001125850","1955-02-06",35.06,17.96,0.00,0.00,
"CA001125850","1955-02-07",35.96,32.00,28.00,0.00,
"CA001125850","1955-02-08",42.08,30.92,0.00,0.00,
"CA001125850","1955-02-09",33.98,24.08,0.00,0.00,
"CA001125850","1955-02-10",26.96,10.04,0.00,0.00,
"CA001125850","1955-02-11",30.02,10.04,0.00,0.00,
"CA001125850","1955-02-12",33.08,21.02,0.00,0.00,
"CA001125850","1955-02-13",37.94,21.92,0.00,0.00,
"CA001125850","1955-02-14",33.98,26.06,0.00,0.00,
"CA001125850","1955-02-15",39.02,21.02,0.00,0.00,
"CA001125850","1955-02-16",39.92,33.98,0.00,0.00,
"CA001125850","1955-02-17",33.98,24.08,0.00,0.00,
"CA001125850","1955-02-18",32.00,19.04,0.00,0.00,
"CA001125850","1955-02-19",32.00,19.04,0.00,0.00,
"CA001125850","1955-02-20",37.04,28.04,0.00,0.00,
"CA001125850","1955-02-21",35.96,24.98,10.00,10.00,
"CA001125850","1955-02-22",44.96,23.00,8.00,0.00,
"CA001125850","1955-02-23",37.04,28.04,0.00,0.00,
"CA001125850","1955-02-24",35.96,32.00,0.00,0.00,
"CA001125850","1955-02-25",26.96,23.00,0.00,0.00,
"CA001125850","1955-02-26",24.08,19.04,0.00,0.00,
"CA001125850","1955-02-27",24.98,10.94,147.00,147.00,
"CA001125850","1955-02-28",35.06,21.02,13.00,13.00,
"CA001125850","1955-03-01",39.02,23.00,0.00,0.00,
"CA001125850","1955-03-02",37.94,23.00,0.00,0.00,
"CA001125850","1955-03-03",26.96,15.08,0.00,0.00,
"CA001125850","1955-03-04",15.08,-0.04,0.00,0.00,
"CA001125850","1955-03-05",24.98,6.98,0.00,0.00,
"CA001125850","1955-03-06",37.94,15.98,0.00,0.00,
"CA001125850","1955-03-07",42.08,24.08,0.00,0.00,
"CA001125850","1955-03-08",41.00,30.92,10.00,0.00,
"CA001125850","1955-03-09",48.02,30.02,0.00,0.00,
"CA001125850","1955-03-10",48.02,30.02,0.00,0.00,
"CA001125850","1955-03-11",44.96,28.94,36.00,0.00,
"CA001125850","1955-03-12",46.94,32.00,0.00,0.00,
"CA001125850","1955-03-13",39.02,28.04,0.00,0.00,
"CA001125850","1955-03-14",42.98,24.08,0.00,0.00,
"CA001125850","1955-03-15",44.06,23.00,0.00,0.00,
"CA001125850","1955-03-16",48.02,24.98,0.00,0.00,
"CA001125850","1955-03-17",50.00,24.08,0.00,0.00,
"CA001125850","1955-03-18",44.06,30.92,0.00,0.00,
"CA001125850","1955-03-19",44.06,30.92,0.00,0.00,
"CA001125850","1955-03-20",42.98,28.94,0.00,0.00,
"CA001125850","1955-03-21",50.00,28.04,0.00,0.00,
"CA001125850","1955-03-22",35.96,28.94,0.00,0.00,
"CA001125850","1955-03-23",32.00,21.92,0.00,0.00,
"CA001125850","1955-03-24",26.06,10.94,0.00,0.00,
"CA001125850","1955-03-25",35.06,17.06,0.00,0.00,
"CA001125850","1955-03-26",44.96,17.06,0.00,0.00,
"CA001125850","1955-03-27",50.00,28.94,0.00,0.00,
"CA001125850","1955-03-28",42.08,33.08,119.00,0.00,
"CA001125850","1955-03-29",51.08,35.96,18.00,0.00,
"CA001125850","1955-03-30",55.04,28.94,0.00,0.00,
"CA001125850","1955-03-31",50.00,39.92,0.00,0.00,
"CA001125850","1955-04-01",53.96,42.08,0.00,0.00,
"CA001125850","1955-04-02",51.98,26.06,0.00,0.00,
"CA001125850","1955-04-03",55.04,26.06,0.00,0.00,
"CA001125850","1955-04-04",60.08,35.96,0.00,0.00,
"CA001125850","1955-04-05",68.00,32.00,0.00,0.00,
"CA001125850","1955-04-06",68.00,33.98,0.00,0.00,
"CA001125850","1955-04-07",71.96,39.02,0.00,0.00,
"CA001125850","1955-04-08",66.92,46.94,0.00,0.00,
"CA001125850","1955-04-09",64.94,46.94,0.00,0.00,
"CA001125850","1955-04-10",57.02,39.02,0.00,0.00,
"CA001125850","1955-04-11",53.06,37.04,0.00,0.00,
"CA001125850","1955-04-12",44.96,32.00,81.00,0.00,
"CA001125850","1955-04-13",51.98,30.92,0.00,0.00,
"CA001125850","1955-04-14",48.02,30.92,0.00,0.00,
"CA001125850","1955-04-15",51.08,26.96,0.00,0.00,
"CA001125850","1955-04-16",53.96,37.04,8.00,0.00,
"CA001125850","1955-04-17",55.94,28.94,0.00,0.00,
"CA001125850","1955-04-18",55.94,39.02,0.00,0.00,
"CA001125850","1955-04-19",60.98,44.96,0.00,0.00,
"CA001125850","1955-04-20",55.04,39.02,86.00,0.00,
"CA001125850","1955-04-21",53.96,39.92,10.00,0.00,
"CA001125850","1955-04-22",55.94,41.00,0.00,0.00,
"CA001125850","1955-04-23",57.92,37.94,0.00,0.00,
"CA001125850","1955-04-24",51.08,26.96,0.00,0.00,
"CA001125850","1955-04-25",55.04,35.96,0.00,0.00,
"CA001125850","1955-04-26",50.00,35.96,30.00,0.00,
"CA001125850","1955-04-27",53.06,30.02,0.00,0.00,
"CA001125850","1955-04-28",57.02,28.94,0.00,0.00,
"CA001125850","1955-04-29",57.92,30.02,0.00,0.00,
"CA001125850","1955-04-30",66.02,37.04,0.00,0.00,
"CA001125850","1955-05-01",64.94,46.04,0.00,0.00,
"CA001125850","1955-05-02",69.08,37.04,0.00,0.00,
"CA001125850","1955-05-03",66.02,48.02,0.00,0.00,
"CA001125850","1955-05-04",69.08,46.04,0.00,0.00,
"CA001125850","1955-05-05",68.00,44.96,0.00,0.00,
"CA001125850","1955-05-06",66.02,32.00,0.00,0.00,
"CA001125850","1955-05-07",69.08,42.08,0.00,0.00,
"CA001125850","1955-05-08",60.98,44.96,0.00,0.00,
"CA001125850","1955-05-09",66.92,33.08,0.00,0.00,
"CA001125850","1955-05-10",62.06,48.02,0.00,0.00,
"CA001125850","1955-05-11",69.08,42.98,0.00,0.00,
"CA001125850","1955-05-12",66.92,46.94,8.00,0.00,
"CA001125850","1955-05-13",53.06,42.08,208.00,0.00,
"CA001125850","1955-05-14",53.96,37.94,13.00,0.00,
"CA001125850","1955-05-15",62.96,46.04,0.00,0.00,
"CA001125850","1955-05-16",66.92,48.02,5.00,0.00,
"CA001125850","1955-05-17",62.96,48.92,0.00,0.00,
"CA001125850","1955-05-18",71.96,51.08,0.00,0.00,
"CA001125850","1955-05-19",82.04,55.04,0.00,0.00,
"CA001125850","1955-05-20",68.00,48.92,0.00,0.00,
"CA001125850","1955-05-21",68.00,48.92,0.00,0.00,
"CA001125850","1955-05-22",62.06,42.98,0.00,0.00,
"CA001125850","1955-05-23",66.02,42.08,0.00,0.00,
"CA001125850","1955-05-24",73.94,46.04,0.00,0.00,
"CA001125850","1955-05-25",66.92,44.06,0.00,0.00,
"CA001125850","1955-05-26",60.08,46.94,20.00,0.00,
"CA001125850","1955-05-27",66.02,37.94,0.00,0.00,
"CA001125850","1955-05-28",71.96,39.02,0.00,0.00,
"CA001125850","1955-05-29",73.94,51.08,0.00,0.00,
"CA001125850","1955-05-30",59.00,48.02,0.00,0.00,
"CA001125850","1955-05-31",55.94,42.98,0.00,0.00,
"CA001125850","1955-06-01",71.96,42.98,0.00,0.00,
"CA001125850","1955-06-02",69.98,46.94,0.00,0.00,
"CA001125850","1955-06-03",77.00,51.08,0.00,0.00,
"CA001125850","1955-06-04",78.98,48.02,0.00,0.00,
"CA001125850","1955-06-05",75.92,59.00,0.00,0.00,
"CA001125850","1955-06-06",80.96,53.96,0.00,0.00,
"CA001125850","1955-06-07",78.08,53.96,0.00,0.00,
"CA001125850","1955-06-08",87.08,48.92,0.00,0.00,
"CA001125850","1955-06-09",89.96,48.92,0.00,0.00,
"CA001125850","1955-06-10",96.08,50.00,0.00,0.00,
"CA001125850","1955-06-11",96.98,53.96,0.00,0.00,
"CA001125850","1955-06-12",91.04,62.06,0.00,0.00,
"CA001125850","1955-06-13",82.94,60.98,0.00,0.00,
"CA001125850","1955-06-14",78.98,57.92,0.00,0.00,
"CA001125850","1955-06-15",75.02,53.06,0.00,0.00,
"CA001125850","1955-06-16",73.94,51.08,0.00,0.00,
"CA001125850","1955-06-17",69.08,48.02,43.00,0.00,
"CA001125850","1955-06-18",68.00,50.00,18.00,0.00,
"CA001125850","1955-06-19",73.04,46.04,0.00,0.00,
"CA001125850","1955-06-20",82.94,51.98,0.00,0.00,
"CA001125850","1955-06-21",91.94,60.98,0.00,0.00,
"CA001125850","1955-06-22",93.92,60.98,0.00,0.00,
"CA001125850","1955-06-23",75.02,64.04,0.00,0.00,
"CA001125850","1955-06-24",64.94,57.02,61.00,0.00,
"CA001125850","1955-06-25",73.04,53.96,0.00,0.00,
"CA001125850","1955-06-26",71.96,51.98,0.00,0.00,
"CA001125850","1955-06-27",77.00,50.00,79.00,0.00,
"CA001125850","1955-06-28",64.94,53.96,147.00,0.00,
"CA001125850","1955-06-29",71.06,48.02,0.00,0.00,
"CA001125850","1955-06-30",64.94,51.98,0.00,0.00,
"CA001125850","1955-07-01",62.06,48.92,0.00,0.00,
"CA001125850","1955-07-02",66.92,42.98,25.00,0.00,
"CA001125850","1955-07-03",71.96,53.96,0.00,0.00,
"CA001125850","1955-07-04",75.92,48.92,5.00,0.00,
"CA001125850","1955-07-05",75.92,50.00,0.00,0.00,
"CA001125850","1955-07-06",78.08,53.06,0.00,0.00,
"CA001125850","1955-07-07",75.02,57.02,0.00,0.00,
"CA001125850","1955-07-08",78.98,53.96,0.00,0.00,
"CA001125850","1955-07-09",80.96,53.06,61.00,0.00,
"CA001125850","1955-07-10",69.98,60.98,10.00,0.00,
"CA001125850","1955-07-11",84.92,57.02,0.00,0.00,